Location: Unspecified
(44.0704°N, 88.6889°W)
Time: 05:26:00
(UTC+02:00)

Transit 2A Rocket - All Passes

Search period start: 20 June 2019 00:00
Search period end: 30 June 2019 00:00
Orbit: 586 x 917 km, 66.7° (Epoch: 18 June)

Date Brightness Start Highest point End Pass type
(mag) Time Alt. Az. Time Alt. Az. Time Alt. Az.
20 Jun - 00:55:55 10° NNE 00:57:00 11° NNE 00:58:04 10° NE daylight
20 Jun - 02:36:19 10° NNW 02:41:19 38° NE 02:45:52 10° ESE daylight
20 Jun - 04:19:14 10° NW 04:23:47 32° WSW 04:27:58 10° S visible
20 Jun - 17:12:05 10° SSE 17:16:46 23° ESE 17:21:24 10° ENE daylight
20 Jun - 18:52:54 10° SW 18:58:58 66° NW 19:04:55 10° NNE daylight
20 Jun - 20:38:49 10° WNW 20:42:42 17° NW 20:46:29 10° N daylight
21 Jun - 01:54:03 10° NNW 01:58:29 25° NE 02:02:35 10° E daylight
21 Jun - 03:36:22 10° NW 03:41:30 56° WSW 03:46:07 10° SSE daylight
21 Jun - 16:31:40 10° SE 16:34:37 14° ESE 16:37:32 10° ENE daylight
21 Jun - 18:10:18 10° SSW 18:16:25 81° ESE 18:22:23 10° NNE daylight
21 Jun - 19:54:54 10° W 19:59:43 24° NW 20:04:23 10° NNE daylight
22 Jun - 01:11:56 10° N 01:15:32 18° NE 01:18:54 10° ENE daylight
22 Jun - 02:53:45 10° NNW 02:59:03 85° ENE 03:03:49 10° SSE daylight
22 Jun - 04:38:50 10° W 04:40:40 12° WSW 04:42:28 10° WSW visible
22 Jun - 17:28:05 10° S 17:33:58 51° ESE 17:39:45 10° NE daylight
22 Jun - 19:11:22 10° WSW 19:16:51 34° NW 19:22:10 10° NNE daylight
22 Jun - 21:00:16 10° NW 21:01:18 10° NNW 21:02:19 10° NNW daylight
23 Jun - 00:30:06 10° N 00:32:27 13° NNE 00:34:42 10° NE daylight
23 Jun - 02:11:16 10° NNW 02:16:27 51° NE 02:21:08 10° SE daylight
23 Jun - 03:54:44 10° WNW 03:58:35 22° WSW 04:02:10 10° SSW daylight
23 Jun - 16:46:19 10° S 16:51:38 32° ESE 16:56:51 10° NE daylight
23 Jun - 18:28:11 10° SW 18:34:06 50° NW 18:39:51 10° NNE daylight
23 Jun - 20:15:04 10° WNW 20:18:06 14° NNW 20:21:05 10° N daylight
24 Jun - 01:28:56 10° NNW 01:33:43 32° NE 01:38:05 10° ESE daylight
24 Jun - 03:11:37 10° NW 03:16:22 38° WSW 03:20:42 10° S daylight
24 Jun - 16:05:10 10° SSE 16:09:24 20° ESE 16:13:35 10° ENE daylight
24 Jun - 17:45:21 10° SW 17:51:29 77° WNW 17:57:25 10° NNE daylight
24 Jun - 19:30:50 10° W 19:35:03 19° NW 19:39:08 10° N daylight
25 Jun - 00:46:43 10° N 00:50:51 22° NE 00:54:41 10° E daylight
25 Jun - 02:28:51 10° NW 02:34:02 67° WSW 02:38:41 10° SSE daylight
25 Jun - 15:25:30 10° ESE 15:27:17 11° E 15:29:03 10° E daylight
25 Jun - 17:02:52 10° SSW 17:08:57 70° ESE 17:14:53 10° NE daylight
25 Jun - 18:47:03 10° W 18:52:06 27° NW 18:57:00 10° NNE daylight
26 Jun - 00:04:41 10° N 00:07:50 16° NNE 00:10:50 10° ENE daylight
26 Jun - 01:46:16 10° NNW 01:51:32 72° ENE 01:56:15 10° SE daylight
26 Jun - 03:30:37 10° WNW 03:33:19 15° WSW 03:35:54 10° SW daylight
26 Jun - 16:20:49 10° S 16:26:32 44° ESE 16:32:09 10° NE daylight
26 Jun - 18:03:37 10° WSW 18:09:17 38° NW 18:14:45 10° NNE daylight
26 Jun - 19:51:43 10° NW 19:53:34 11° NNW 19:55:23 10° N daylight
26 Jun - 23:23:06 10° N 23:24:43 11° NNE 23:26:18 10° NE daylight
27 Jun - 01:03:51 10° NNW 01:08:54 43° NE 01:13:26 10° ESE daylight
27 Jun - 02:47:01 10° NW 02:51:11 26° WSW 02:55:03 10° SSW daylight
27 Jun - 15:39:13 10° SSE 15:44:15 27° ESE 15:49:09 10° NE daylight
27 Jun - 17:20:34 10° SW 17:26:35 58° NW 17:32:23 10° NNE daylight
27 Jun - 19:06:58 10° WNW 19:10:25 15° NNW 19:13:46 10° N daylight
28 Jun - 00:21:34 10° NNW 00:26:06 28° NE 00:30:17 10° ESE daylight
28 Jun - 02:04:02 10° NW 02:08:56 46° WSW 02:13:22 10° S daylight
28 Jun - 14:58:24 10° SE 15:02:03 17° ESE 15:05:38 10° ENE daylight
28 Jun - 16:37:51 10° SSW 16:44:00 88° WNW 16:49:56 10° NNE daylight
28 Jun - 18:22:54 10° W 18:27:24 21° NW 18:31:45 10° N daylight
28 Jun - 23:39:24 10° N 23:43:11 19° NE 23:46:43 10° E daylight
29 Jun - 01:21:20 10° NNW 01:26:32 81° WSW 01:31:13 10° SSE daylight
29 Jun - 15:55:31 10° SSW 16:01:31 60° ESE 16:07:19 10° NE daylight
29 Jun - 17:39:14 10° WSW 17:44:30 30° NW 17:49:35 10° NNE daylight
29 Jun - 22:57:29 10° N 23:00:08 14° NNE 23:02:41 10° ENE daylight
